Miscellaneous Local Product
Issued by NWS Hastings, NE

Home | Current Version | Previous Version | Graphics & Text | Print | Product List | Glossary On
Versions: 1 2 3 4 5 6 7 8 9 10 11 12 13 14 15 16 17 18 19 20 21 22 23 24 25 26 27 28 29 30 31 32 33 34 35 36 37 38 39 40 41 42 43 44 45 46 47 48 49 50
000
AXUS43 KGID 250902
MISGRI

GID CWA HOURLY WEATHER ROUNDUP
NATIONAL WEATHER SERVICE HASTINGS NE
400 AM CDT SUN JUN 25 2017

NOTE: "FAIR" INDICATES FEW OR NO CLOUDS BELOW 12,000 FEET WITH NO
SIGNIFICANT WEATHER AND/OR OBSTRUCTIONS TO VISIBILITY.

...SOUTH CENTRAL NEBRASKA...

CITY           SKY/WX    TMP DP  RH WIND       PRES   REMARKS
GRAND ISLAND   CLEAR     49  43  80 N8        30.31R
HASTINGS       CLEAR     51  42  71 N7        30.31R
KEARNEY        PTCLDY    54  39  58 N7        30.32R
ORD            PTCLDY    48  39  71 W3        30.33R
YORK           CLEAR     48  43  81 N9        30.30R
AURORA         PTCLDY    50  43  77 N9        30.30R
LEXINGTON      PTCLDY    52  41  66 NE7       30.31S
HOLDREGE       CLEAR     51  42  70 NW3       30.30R
HEBRON         PTCLDY    53  48  83 CALM      30.27S

...NEBRASKA PANHANDLE...

CITY           SKY/WX    TMP DP  RH WIND       PRES   REMARKS
CHADRON        CLOUDY    54  36  50 N12       30.35F
ALLIANCE       CLOUDY    55  36  48 E6        30.37S
SCOTTSBLUFF    CLOUDY    59  35  40 E16       30.37R
SIDNEY         CLOUDY    53  45  74 NE5       30.36R

...WESTERN AND NORTH CENTRAL NEBRASKA...

CITY           SKY/WX    TMP DP  RH WIND       PRES   REMARKS
VALENTINE      CLOUDY    46  34  62 W6        30.35S
AINSWORTH      CLOUDY    47  40  77 SW5       30.35S
ONEILL         CLOUDY    47  42  80 W3        30.33S
BROKEN BOW     CLOUDY    54  41  61 N5        30.34R
IMPERIAL       PTCLDY    52  45  77 CALM      30.33R
NORTH PLATTE   CLOUDY    55  38  52 NE12      30.33S
MCCOOK         PTCLDY    51  48  89 W6        30.30R

...EASTERN NEBRASKA...

CITY           SKY/WX    TMP DP  RH WIND       PRES   REMARKS
NORFOLK        PTCLDY    47  40  76 W6        30.30R
SO SIOUX CITY  PTCLDY    48  42  80 W5        30.26R
TEKAMAH        PTCLDY    52  41  66 W8        30.26R
COLUMBUS       PTCLDY    53  41  63 CALM      30.30R
ALBION         MOCLDY    50  41  71 N5        30.31F
OMAHA EPPLEY   CLEAR     55  44  66 N3        30.25R
OFFUTT AFB     CLEAR     53  44  71 CALM      30.25R
MILLARD        CLEAR     57  44  62 NW6       30.26R
LINCOLN        CLEAR     53  43  68 N5        30.28R
NEBRASKA CITY  CLEAR     57  46  64 N5        30.26R
BEATRICE       PTCLDY    51  47  85 N3        30.26R
FALLS CITY     CLEAR     54  48  80 NW6       30.22R

...NORTHERN KANSAS...

CITY           SKY/WX    TMP DP  RH WIND       PRES   REMARKS
GOODLAND       CLOUDY    55  51  86 SE16      30.32F
HILL CITY      CLOUDY    60  59  96 SW3       30.30R
NORTON         MOSUNNY   54  43  66 W3        30.27F
PHILLIPSBURG   CLEAR     52  52 100 W3        30.27S
SMITH CENTER   CLEAR     54  50  87 CALM      30.27F
HAYS           CLOUDY    60  52  74 E10       30.29F
RUSSELL        CLOUDY    59  55  87 SE7       30.27R
CONCORDIA      PTCLDY    60  51  72 SW9       30.26S
SALINA         CLOUDY    63  58  83 S6        30.28F
TOPEKA         CLOUDY    66  52  60 W5        30.24R



USA.gov is the U.S. government's official web portal to all federal, state and local government web resources and services.